Private Wetterstation Wechselburg
Wetterdaten: Dienstag, 26.03.2013
Datum Zeit Temp. +2m Bodentemp. Temp.+5cm Temp. Wind Windchill X Diff Temp. Feuchte +2m Feuchte +5cm Sonnenschein Luftdruck Regen Wind Richtung Richtung Sonnenschein UV Taupunkt Windchill Windben
26.03.2013 00:00 -4,7 C 6,9 C -4,8 C -6,0 C -8,6 C 0,0 C 68 % 72 % 0 % 1016,8 hPa 0,0 l/m 7,1 km/h (2 Bft) O-NO 67 0 min 0,0 UV-I -9,7 C -12,4 C 6,6 km/h (2 Bft)
26.03.2013 00:05 -4,7 C 6,9 C -4,8 C -5,7 C -8,9 C 0,0 C 68 % 72 % 0 % 1016,8 hPa 0,0 l/m 7,7 km/h (2 Bft) O-NO 67 0 min 0,0 UV-I -9,7 C -13,1 C 10,5 km/h (2 Bft)
26.03.2013 00:10 -4,7 C 6,9 C -4,8 C -6,0 C -8,7 C 0,0 C 68 % 72 % 0 % 1016,8 hPa 0,0 l/m 7,4 km/h (2 Bft) O 90 0 min 0,0 UV-I -9,7 C -12,7 C 6,4 km/h (2 Bft)
26.03.2013 00:15 -4,7 C 6,9 C -4,7 C -6,0 C -8,7 C 0,0 C 68 % 72 % 0 % 1016,4 hPa 0,0 l/m 7,2 km/h (2 Bft) O 90 0 min 0,0 UV-I -9,7 C -12,6 C 12,9 km/h (3 Bft)
26.03.2013 00:20 -4,8 C 6,9 C -4,9 C -6,1 C -8,6 C 0,0 C 68 % 73 % 0 % 1016,4 hPa 0,0 l/m 7,1 km/h (2 Bft) O 90 0 min 0,0 UV-I -9,8 C -12,4 C 12,4 km/h (3 Bft)
26.03.2013 00:25 -4,8 C 6,9 C -4,9 C -5,7 C -8,9 C 0,0 C 68 % 73 % 0 % 1016,4 hPa 0,0 l/m 7,7 km/h (2 Bft) O-NO 67 0 min 0,0 UV-I -9,8 C -13,1 C 8,4 km/h (2 Bft)
26.03.2013 00:30 -4,8 C 6,9 C -4,9 C -6,2 C -8,9 C 0,0 C 68 % 73 % 0 % 1016,4 hPa 0,0 l/m 7,7 km/h (2 Bft) O-SO 112 0 min 0,0 UV-I -9,8 C -13,1 C 8,2 km/h (2 Bft)
26.03.2013 00:35 -4,8 C 6,9 C -4,9 C -6,1 C -8,8 C 0,0 C 69 % 73 % 0 % 1016,5 hPa 0,0 l/m 7,2 km/h (2 Bft) O-SO 112 0 min 0,0 UV-I -9,6 C -12,7 C 8,0 km/h (2 Bft)
26.03.2013 00:41 -4,7 C 6,9 C -4,9 C -6,0 C -8,7 C 0,0 C 69 % 73 % 0 % 1016,5 hPa 0,0 l/m 7,1 km/h (2 Bft) N 0 0 min 0,0 UV-I -9,5 C -12,6 C 6,9 km/h (2 Bft)
26.03.2013 01:00 -4,9 C 6,9 C -4,9 C -6,2 C -8,8 C 0,0 C 69 % 73 % 0 % 1016,8 hPa 0,0 l/m 6,9 km/h (2 Bft) O-NO 67 0 min 0,0 UV-I -9,7 C -12,6 C 6,0 km/h (2 Bft)
26.03.2013 01:05 -4,9 C 6,9 C -5,0 C -6,2 C -8,7 C 0,0 C 69 % 73 % 0 % 1016,8 hPa 0,0 l/m 6,6 km/h (2 Bft) O 90 0 min 0,0 UV-I -9,7 C -12,3 C 9,2 km/h (2 Bft)
26.03.2013 01:10 -4,9 C 6,9 C -4,9 C -6,2 C -8,8 C 0,0 C 69 % 73 % 0 % 1016,8 hPa 0,0 l/m 6,6 km/h (2 Bft) O-NO 67 0 min 0,0 UV-I -9,7 C -12,4 C 10,6 km/h (2 Bft)
26.03.2013 01:15 -4,9 C 6,9 C -4,9 C -6,2 C -8,7 C 0,0 C 69 % 73 % 0 % 1016,4 hPa 0,0 l/m 6,4 km/h (2 Bft) O-SO 112 0 min 0,0 UV-I -9,7 C -12,2 C 7,2 km/h (2 Bft)
26.03.2013 01:20 -4,9 C 6,9 C -4,9 C -6,2 C -8,8 C 0,0 C 69 % 73 % 0 % 1016,4 hPa 0,0 l/m 6,6 km/h (2 Bft) O-SO 112 0 min 0,0 UV-I -9,7 C -12,4 C 7,7 km/h (2 Bft)
26.03.2013 01:25 -4,9 C 6,9 C -5,1 C -6,2 C -8,8 C 0,0 C 69 % 74 % 0 % 1016,4 hPa 0,0 l/m 6,8 km/h (2 Bft) O 90 0 min 0,0 UV-I -9,7 C -12,5 C 14,3 km/h (3 Bft)
26.03.2013 01:30 -4,9 C 6,9 C -4,9 C -6,2 C -8,8 C 0,0 C 69 % 74 % 0 % 1016,4 hPa 0,0 l/m 6,8 km/h (2 Bft) O-NO 67 0 min 0,0 UV-I -9,7 C -12,5 C 8,5 km/h (2 Bft)
26.03.2013 01:35 -5,0 C 6,9 C -5,1 C -6,3 C -8,8 C 0,0 C 69 % 74 % 0 % 1016,6 hPa 0,0 l/m 6,6 km/h (2 Bft) O-NO 67 0 min 0,0 UV-I -9,8 C -12,4 C 5,3 km/h (1 Bft)
26.03.2013 01:40 -4,9 C 6,9 C -5,1 C -6,2 C -8,7 C 0,0 C 70 % 74 % 0 % 1016,6 hPa 0,0 l/m 6,1 km/h (2 Bft) O-NO 67 0 min 0,0 UV-I -9,5 C -12,1 C 6,9 km/h (2 Bft)
26.03.2013 01:45 -4,9 C 6,9 C -5,1 C -6,1 C -8,4 C 0,0 C 70 % 74 % 0 % 1016,6 hPa 0,0 l/m 5,6 km/h (1 Bft) O-NO 67 0 min 0,0 UV-I -9,5 C -11,5 C 6,6 km/h (2 Bft)
26.03.2013 01:50 -4,9 C 6,9 C -5,1 C -6,2 C -8,8 C 0,0 C 70 % 74 % 0 % 1016,6 hPa 0,0 l/m 6,3 km/h (2 Bft) W-NW 292 0 min 0,0 UV-I -9,5 C -12,3 C 11,7 km/h (2 Bft)
26.03.2013 01:55 -4,9 C 6,9 C -5,1 C -6,2 C -8,8 C 0,0 C 70 % 74 % 0 % 1016,4 hPa 0,0 l/m 6,4 km/h (2 Bft) O-NO 67 0 min 0,0 UV-I -9,5 C -12,3 C 5,6 km/h (1 Bft)
26.03.2013 02:00 -5,1 C 6,9 C -5,2 C -6,3 C -8,7 C 0,0 C 70 % 74 % 0 % 1016,4 hPa 0,0 l/m 6,1 km/h (2 Bft) O-NO 67 0 min 0,0 UV-I -9,7 C -12,1 C 5,3 km/h (1 Bft)
26.03.2013 02:05 -5,1 C 6,9 C -5,1 C -6,3 C -8,8 C 0,0 C 70 % 74 % 0 % 1016,4 hPa 0,0 l/m 6,3 km/h (2 Bft) O-NO 67 0 min 0,0 UV-I -9,7 C -12,3 C 8,9 km/h (2 Bft)
26.03.2013 02:10 -5,1 C 6,9 C -5,2 C -6,3 C -8,8 C 0,0 C 70 % 74 % 0 % 1016,4 hPa 0,0 l/m 6,4 km/h (2 Bft) O-NO 67 0 min 0,0 UV-I -9,7 C -12,3 C 5,5 km/h (1 Bft)
26.03.2013 02:15 -5,1 C 6,9 C -5,2 C -6,2 C -8,4 C 0,0 C 70 % 74 % 0 % 1016,4 hPa 0,0 l/m 5,6 km/h (1 Bft) O-NO 67 0 min 0,0 UV-I -9,7 C -11,5 C 5,8 km/h (2 Bft)
26.03.2013 02:20 -5,1 C 6,9 C -5,2 C -6,1 C -8,2 C 0,0 C 71 % 74 % 0 % 1016,4 hPa 0,0 l/m 5,1 km/h (1 Bft) O-NO 67 0 min 0,0 UV-I -9,5 C -11,0 C 4,8 km/h (1 Bft)
26.03.2013 02:25 -5,3 C 6,9 C -5,3 C -6,2 C -8,0 C 0,0 C 71 % 75 % 0 % 1016,4 hPa 0,0 l/m 4,5 km/h (1 Bft) O-NO 67 0 min 0,0 UV-I -9,7 C -8,0 C 4,2 km/h (1 Bft)
26.03.2013 02:30 -5,3 C 6,9 C -5,3 C -6,2 C -8,1 C 0,0 C 71 % 75 % 0 % 1016,4 hPa 0,0 l/m 4,5 km/h (1 Bft) O-NO 67 0 min 0,0 UV-I -9,7 C -8,1 C 6,6 km/h (2 Bft)
26.03.2013 02:35 -5,1 C 6,9 C -5,3 C -6,2 C -8,3 C 0,0 C 71 % 75 % 0 % 1016,4 hPa 0,0 l/m 5,0 km/h (1 Bft) O-NO 67 0 min 0,0 UV-I -9,5 C -11,0 C 5,0 km/h (1 Bft)
26.03.2013 02:40 -5,1 C 6,9 C -5,3 C -6,2 C -8,3 C 0,0 C 71 % 75 % 0 % 1016,4 hPa 0,0 l/m 5,1 km/h (1 Bft) O 90 0 min 0,0 UV-I -9,5 C -11,1 C 4,0 km/h (1 Bft)
26.03.2013 02:45 -5,3 C 6,9 C -5,4 C -6,3 C -8,2 C 0,0 C 71 % 75 % 0 % 1016,4 hPa 0,0 l/m 4,7 km/h (1 Bft) O-NO 67 0 min 0,0 UV-I -9,7 C -10,7 C 4,0 km/h (1 Bft)
26.03.2013 02:50 -5,3 C 6,9 C -5,3 C -6,2 C -8,0 C 0,0 C 71 % 76 % 0 % 1016,4 hPa 0,0 l/m 4,3 km/h (1 Bft) O-NO 67 0 min 0,0 UV-I -9,7 C -8,0 C 5,3 km/h (1 Bft)
26.03.2013 02:55 -5,3 C 6,9 C -5,3 C -6,3 C -8,2 C 0,0 C 71 % 75 % 0 % 1016,4 hPa 0,0 l/m 4,7 km/h (1 Bft) O-NO 67 0 min 0,0 UV-I -9,7 C -10,7 C 4,0 km/h (1 Bft)
26.03.2013 03:00 -5,3 C 6,9 C -5,3 C -6,3 C -8,2 C 0,0 C 72 % 76 % 0 % 1016,4 hPa 0,0 l/m 4,7 km/h (1 Bft) NO 45 0 min 0,0 UV-I -9,5 C -10,7 C 6,8 km/h (2 Bft)
26.03.2013 03:05 -5,3 C 6,9 C -5,3 C -6,2 C -8,1 C 0,0 C 72 % 76 % 0 % 1016,4 hPa 0,0 l/m 4,5 km/h (1 Bft) O-NO 67 0 min 0,0 UV-I -9,5 C -8,1 C 4,0 km/h (1 Bft)
26.03.2013 03:10 -5,4 C 6,9 C -5,3 C -6,2 C -7,9 C 0,0 C 72 % 76 % 0 % 1016,4 hPa 0,0 l/m 4,0 km/h (1 Bft) O-NO 67 0 min 0,0 UV-I -9,6 C -7,9 C 5,5 km/h (1 Bft)
26.03.2013 03:15 -5,3 C 6,9 C -5,5 C -6,2 C -8,0 C 0,0 C 72 % 76 % 0 % 1015,6 hPa 0,0 l/m 4,2 km/h (1 Bft) NO 45 0 min 0,0 UV-I -9,5 C -8,0 C 4,7 km/h (1 Bft)
26.03.2013 03:20 -5,5 C 6,9 C -5,5 C -6,5 C -8,4 C 0,0 C 72 % 76 % 0 % 1015,6 hPa 0,0 l/m 4,7 km/h (1 Bft) O-NO 67 0 min 0,0 UV-I -9,7 C -10,9 C 6,9 km/h (2 Bft)
26.03.2013 03:25 -5,5 C 6,9 C -5,5 C -6,5 C -8,6 C 0,0 C 72 % 76 % 0 % 1015,6 hPa 0,0 l/m 4,8 km/h (1 Bft) O-NO 67 0 min 0,0 UV-I -9,7 C -11,2 C 4,8 km/h (1 Bft)
26.03.2013 03:30 -5,5 C 6,9 C -5,6 C -6,6 C -8,7 C 0,0 C 72 % 76 % 0 % 1015,6 hPa 0,0 l/m 5,1 km/h (1 Bft) O-NO 67 0 min 0,0 UV-I -9,7 C -11,5 C 5,6 km/h (1 Bft)
26.03.2013 03:35 -5,5 C 6,9 C -5,6 C -6,6 C -8,8 C 0,0 C 72 % 76 % 0 % 1015,6 hPa 0,0 l/m 5,3 km/h (1 Bft) O-NO 67 0 min 0,0 UV-I -9,7 C -11,8 C 5,1 km/h (1 Bft)
26.03.2013 03:40 -5,5 C 6,9 C -5,6 C -6,6 C -8,8 C 0,0 C 72 % 76 % 0 % 1015,6 hPa 0,0 l/m 5,3 km/h (1 Bft) O-NO 67 0 min 0,0 UV-I -9,7 C -11,8 C 6,1 km/h (2 Bft)
26.03.2013 03:45 -5,5 C 6,9 C -5,6 C -6,7 C -9,0 C 0,0 C 72 % 76 % 0 % 1015,6 hPa 0,0 l/m 5,6 km/h (1 Bft) O-NO 67 0 min 0,0 UV-I -9,7 C -12,2 C 6,1 km/h (2 Bft)
26.03.2013 03:50 -5,5 C 6,8 C -5,6 C -6,7 C -9,0 C 0,0 C 72 % 76 % 0 % 1015,6 hPa 0,0 l/m 5,6 km/h (1 Bft) O-NO 67 0 min 0,0 UV-I -9,7 C -12,2 C 6,3 km/h (2 Bft)
26.03.2013 03:55 -5,5 C 6,8 C -5,6 C -6,5 C -8,4 C 0,0 C 72 % 76 % 0 % 1015,4 hPa 0,0 l/m 4,7 km/h (1 Bft) O-NO 67 0 min 0,0 UV-I -9,7 C -10,9 C 3,7 km/h (1 Bft)
26.03.2013 04:00 -5,6 C 6,8 C -5,7 C -6,5 C -8,2 C 0,0 C 72 % 76 % 0 % 1015,4 hPa 0,0 l/m 4,2 km/h (1 Bft) NO 45 0 min 0,0 UV-I -9,8 C -8,2 C 4,5 km/h (1 Bft)
26.03.2013 04:05 -5,6 C 6,8 C -5,7 C -6,6 C -8,7 C 0,0 C 72 % 76 % 0 % 1015,4 hPa 0,0 l/m 5,0 km/h (1 Bft) O 90 0 min 0,0 UV-I -9,8 C -11,5 C 9,7 km/h (2 Bft)
26.03.2013 04:10 -5,5 C 6,8 C -5,7 C -6,7 C -9,2 C 0,0 C 72 % 76 % 0 % 1015,4 hPa 0,0 l/m 5,8 km/h (2 Bft) O-NO 67 0 min 0,0 UV-I -9,7 C -12,5 C 9,5 km/h (2 Bft)
26.03.2013 04:15 -5,7 C 6,8 C -5,7 C -6,9 C -9,2 C 0,0 C 72 % 76 % 0 % 1015,7 hPa 0,0 l/m 5,8 km/h (2 Bft) O-NO 67 0 min 0,0 UV-I -9,9 C -12,5 C 6,1 km/h (2 Bft)
26.03.2013 04:20 -5,7 C 6,8 C -5,7 C -6,8 C -9,0 C 0,0 C 72 % 76 % 0 % 1015,7 hPa 0,0 l/m 5,5 km/h (1 Bft) O-NO 67 0 min 0,0 UV-I -9,9 C -12,1 C 5,5 km/h (1 Bft)
26.03.2013 04:25 -5,7 C 6,8 C -5,7 C -6,8 C -9,0 C 0,0 C 72 % 76 % 0 % 1015,7 hPa 0,0 l/m 5,5 km/h (1 Bft) O-NO 67 0 min 0,0 UV-I -9,9 C -12,1 C 5,6 km/h (1 Bft)
26.03.2013 04:30 -5,7 C 6,8 C -5,7 C -6,8 C -8,9 C 0,0 C 72 % 76 % 0 % 1015,7 hPa 0,0 l/m 5,3 km/h (1 Bft) O-NO 67 0 min 0,0 UV-I -9,9 C -11,9 C 5,3 km/h (1 Bft)
26.03.2013 04:35 -5,7 C 6,8 C -5,7 C -6,6 C -8,4 C 0,0 C 72 % 76 % 0 % 1015,7 hPa 0,0 l/m 4,3 km/h (1 Bft) O-NO 67 0 min 0,0 UV-I -9,9 C -8,4 C 5,6 km/h (1 Bft)
26.03.2013 04:40 -5,7 C 6,8 C -5,7 C -6,5 C -8,2 C 0,0 C 72 % 76 % 0 % 1015,7 hPa 0,0 l/m 4,0 km/h (1 Bft) O 90 0 min 0,0 UV-I -9,9 C -8,2 C 3,2 km/h (1 Bft)
26.03.2013 04:45 -5,7 C 6,8 C -5,9 C -6,3 C -7,4 C 0,0 C 72 % 76 % 0 % 1015,7 hPa 0,0 l/m 2,6 km/h (1 Bft) O-NO 67 0 min 0,0 UV-I -9,9 C -7,4 C 1,9 km/h (1 Bft)
26.03.2013 04:50 -5,7 C 6,8 C -5,9 C -6,2 C -7,1 C 0,0 C 72 % 77 % 0 % 1015,7 hPa 0,0 l/m 2,3 km/h (1 Bft) NO 45 0 min 0,0 UV-I -9,9 C -7,1 C 2,6 km/h (1 Bft)
26.03.2013 04:55 -5,9 C 6,8 C -5,9 C -6,5 C -7,6 C 0,0 C 73 % 77 % 0 % 1015,7 hPa 0,0 l/m 2,7 km/h (1 Bft) O-NO 67 0 min 0,0 UV-I -9,9 C -7,6 C 4,0 km/h (1 Bft)
26.03.2013 05:00 -5,9 C 6,8 C -5,9 C -6,5 C -7,8 C 0,0 C 73 % 77 % 0 % 1015,7 hPa 0,0 l/m 2,9 km/h (1 Bft) NO 45 0 min 0,0 UV-I -9,9 C -7,8 C 3,1 km/h (1 Bft)
26.03.2013 05:05 -5,9 C 6,8 C -6,0 C -6,4 C -7,4 C 0,0 C 73 % 77 % 0 % 1015,7 hPa 0,0 l/m 2,4 km/h (1 Bft) O-NO 67 0 min 0,0 UV-I -9,9 C -7,4 C 2,1 km/h (1 Bft)
26.03.2013 05:10 -6,0 C 6,8 C -6,0 C -6,3 C -7,0 C 0,0 C 73 % 77 % 0 % 1015,7 hPa 0,0 l/m 1,9 km/h (1 Bft) O-NO 67 0 min 0,0 UV-I -10,0 C -7,0 C 4,5 km/h (1 Bft)
26.03.2013 05:15 -5,9 C 6,8 C -6,1 C -6,3 C -7,1 C 0,0 C 73 % 77 % 0 % 1015,3 hPa 0,0 l/m 1,9 km/h (1 Bft) O 90 0 min 0,0 UV-I -9,9 C -7,1 C 2,9 km/h (1 Bft)
26.03.2013 05:20 -6,1 C 6,8 C -6,1 C -6,5 C -7,2 C 0,0 C 73 % 77 % 0 % 1015,3 hPa 0,0 l/m 1,8 km/h (1 Bft) O-SO 112 0 min 0,0 UV-I -10,1 C -7,2 C 2,7 km/h (1 Bft)
26.03.2013 05:25 -6,1 C 6,8 C -6,1 C -6,5 C -7,3 C 0,0 C 73 % 77 % 0 % 1015,3 hPa 0,0 l/m 1,8 km/h (1 Bft) O-NO 67 0 min 0,0 UV-I -10,1 C -7,3 C 1,9 km/h (1 Bft)
26.03.2013 05:30 -6,1 C 6,8 C -6,1 C -6,5 C -7,3 C 0,0 C 73 % 77 % 0 % 1015,3 hPa 0,0 l/m 1,9 km/h (1 Bft) O-NO 67 0 min 0,0 UV-I -10,1 C -7,3 C 4,2 km/h (1 Bft)
26.03.2013 05:35 -6,2 C 6,8 C -6,2 C -6,9 C -8,2 C 0,0 C 73 % 77 % 0 % 1015,8 hPa 0,0 l/m 2,6 km/h (1 Bft) O 90 0 min 0,0 UV-I -10,2 C -8,2 C 6,1 km/h (2 Bft)
26.03.2013 05:40 -6,2 C 6,8 C -6,1 C -7,0 C -8,6 C 0,0 C 73 % 77 % 0 % 1015,8 hPa 0,0 l/m 3,2 km/h (1 Bft) O-NO 67 0 min 0,0 UV-I -10,2 C -8,6 C 3,1 km/h (1 Bft)
26.03.2013 05:45 -6,1 C 6,8 C -6,1 C -6,8 C -8,2 C 0,0 C 74 % 77 % 0 % 1015,8 hPa 0,0 l/m 2,6 km/h (1 Bft) O-NO 67 0 min 0,0 UV-I -10,0 C -8,2 C 5,1 km/h (1 Bft)
26.03.2013 05:50 -6,3 C 6,8 C -6,3 C -6,9 C -8,1 C 0,0 C 73 % 77 % 0 % 1015,8 hPa 0,0 l/m 2,4 km/h (1 Bft) O 90 0 min 0,0 UV-I -10,3 C -8,1 C 3,1 km/h (1 Bft)
26.03.2013 05:55 -6,4 C 6,8 C -6,4 C -7,1 C -8,4 C 0,0 C 74 % 78 % 0 % 1015,4 hPa 0,0 l/m 2,6 km/h (1 Bft) N-NW 337 0 min 0,0 UV-I -10,2 C -8,4 C 1,9 km/h (1 Bft)
26.03.2013 06:00 -6,4 C 6,8 C -6,5 C -7,0 C -8,2 C 0,0 C 74 % 78 % 0 % 1015,4 hPa 0,0 l/m 2,4 km/h (1 Bft) O-NO 67 0 min 0,0 UV-I -10,2 C -8,2 C 2,7 km/h (1 Bft)
26.03.2013 06:05 -6,5 C 6,8 C -6,5 C -7,1 C -8,2 C 0,0 C 74 % 78 % 0 % 1015,4 hPa 0,0 l/m 2,3 km/h (1 Bft) O-NO 67 0 min 0,0 UV-I -10,3 C -8,2 C 2,9 km/h (1 Bft)
26.03.2013 06:10 -6,5 C 6,8 C -6,6 C -7,1 C -8,3 C 0,0 C 75 % 78 % 0 % 1015,4 hPa 0,0 l/m 2,4 km/h (1 Bft) O 90 0 min 0,0 UV-I -10,2 C -8,3 C 2,7 km/h (1 Bft)
26.03.2013 06:15 -6,5 C 6,8 C -6,5 C -7,1 C -8,2 C 0,0 C 75 % 78 % 0 % 1015,4 hPa 0,0 l/m 2,3 km/h (1 Bft) O-NO 67 0 min 0,0 UV-I -10,2 C -8,2 C 0,0 km/h (0 Bft)
26.03.2013 06:20 -6,5 C 6,8 C -6,5 C -7,1 C -8,3 C 0,0 C 75 % 78 % 0 % 1015,4 hPa 0,0 l/m 2,4 km/h (1 Bft) O-NO 67 0 min 0,0 UV-I -10,2 C -8,3 C 3,9 km/h (1 Bft)
26.03.2013 06:25 -6,5 C 6,8 C -6,5 C -7,2 C -8,7 C 0,0 C 75 % 78 % 0 % 1015,4 hPa 0,0 l/m 2,7 km/h (1 Bft) O-NO 67 0 min 0,0 UV-I -10,2 C -8,7 C 3,5 km/h (1 Bft)
26.03.2013 06:30 -6,5 C 6,8 C -6,5 C -7,2 C -8,7 C 0,0 C 75 % 79 % 0 % 1015,4 hPa 0,0 l/m 2,9 km/h (1 Bft) NO 45 0 min 0,0 UV-I -10,2 C -8,7 C 3,1 km/h (1 Bft)
26.03.2013 06:35 -6,5 C 6,8 C -6,5 C -7,0 C -8,1 C 0,0 C 75 % 79 % 0 % 1015,2 hPa 0,0 l/m 2,4 km/h (1 Bft) O-NO 67 0 min 0,0 UV-I -10,2 C -8,1 C 2,3 km/h (1 Bft)
26.03.2013 06:46 -6,6 C 6,8 C -6,5 C -7,3 C -8,6 C 0,0 C 76 % 79 % 0 % 1015,2 hPa 0,0 l/m 3,5 km/h (1 Bft) N 0 0 min 0,0 UV-I -10,1 C -8,6 C 4,3 km/h (1 Bft)
26.03.2013 07:00 -6,5 C 6,8 C -6,4 C -7,1 C -8,4 C 0,0 C 76 % 78 % 0 % 1015,8 hPa 0,0 l/m 3,7 km/h (1 Bft) O 90 0 min 0,0 UV-I -10,0 C -8,4 C 4,8 km/h (1 Bft)
26.03.2013 07:05 -6,5 C 6,8 C -6,4 C -7,2 C -8,5 C 0,0 C 75 % 78 % 0 % 1015,8 hPa 0,0 l/m 4,0 km/h (1 Bft) O-NO 67 0 min 0,0 UV-I -10,2 C -8,5 C 5,0 km/h (1 Bft)
26.03.2013 07:10 -6,5 C 6,8 C -6,3 C -7,2 C -8,6 C 0,0 C 75 % 78 % 0 % 1015,8 hPa 0,0 l/m 4,5 km/h (1 Bft) O-NO 67 0 min 0,0 UV-I -10,2 C -8,6 C 5,6 km/h (1 Bft)
26.03.2013 07:15 -6,4 C 6,8 C -6,2 C -6,9 C -7,9 C 0,0 C 75 % 78 % 0 % 1015,6 hPa 0,0 l/m 4,3 km/h (1 Bft) O-NO 67 0 min 0,0 UV-I -10,1 C -7,9 C 5,3 km/h (1 Bft)
26.03.2013 07:20 -6,3 C 6,8 C -6,1 C -6,8 C -7,7 C 0,0 C 75 % 78 % 0 % 1015,6 hPa 0,0 l/m 4,5 km/h (1 Bft) O-NO 67 0 min 0,0 UV-I -10,0 C -7,7 C 5,0 km/h (1 Bft)
26.03.2013 07:25 -6,1 C 6,8 C -5,9 C -6,5 C -7,4 C 0,0 C 75 % 78 % 0 % 1015,6 hPa 0,0 l/m 4,7 km/h (1 Bft) O-NO 67 0 min 0,0 UV-I -9,8 C -9,8 C 5,8 km/h (2 Bft)
26.03.2013 07:30 -6,1 C 6,8 C -5,9 C -6,5 C -7,3 C 0,0 C 75 % 77 % 0 % 1015,6 hPa 0,0 l/m 4,8 km/h (1 Bft) O 90 0 min 0,0 UV-I -9,8 C -9,8 C 5,8 km/h (2 Bft)
26.03.2013 07:35 -6,1 C 6,8 C -5,7 C -6,5 C -7,2 C 0,0 C 75 % 77 % 0 % 1015,4 hPa 0,0 l/m 5,1 km/h (1 Bft) O-NO 67 0 min 0,0 UV-I -9,8 C -9,8 C 6,6 km/h (2 Bft)
26.03.2013 07:40 -6,1 C 6,8 C -5,7 C -6,3 C -6,7 C 0,0 C 75 % 77 % 0 % 1015,4 hPa 0,0 l/m 4,8 km/h (1 Bft) O-NO 67 0 min 0,0 UV-I -9,8 C -9,1 C 5,0 km/h (1 Bft)
26.03.2013 07:45 -5,9 C 6,8 C -5,7 C -6,0 C -6,3 C 0,0 C 75 % 77 % 0 % 1015,4 hPa 0,0 l/m 4,7 km/h (1 Bft) O-NO 67 0 min 0,0 UV-I -9,6 C -8,6 C 5,3 km/h (1 Bft)
26.03.2013 07:50 -5,9 C 6,8 C -5,5 C -6,0 C -6,3 C 0,0 C 75 % 77 % 0 % 1015,4 hPa 0,0 l/m 4,8 km/h (1 Bft) O-NO 67 0 min 0,0 UV-I -9,6 C -8,6 C 4,5 km/h (1 Bft)
26.03.2013 07:55 -5,7 C 6,8 C -5,3 C -5,9 C -6,3 C 0,0 C 74 % 77 % 0 % 1015,4 hPa 0,0 l/m 5,1 km/h (1 Bft) O 90 0 min 0,0 UV-I -9,6 C -8,8 C 4,7 km/h (1 Bft)
26.03.2013 08:00 -5,7 C 6,8 C -5,5 C -5,9 C -6,4 C 0,0 C 74 % 77 % 0 % 1015,4 hPa 0,0 l/m 5,3 km/h (1 Bft) O-NO 67 0 min 0,0 UV-I -9,6 C -9,0 C 6,8 km/h (2 Bft)
26.03.2013 08:05 -5,7 C 6,8 C -5,3 C -6,0 C -6,6 C 0,0 C 74 % 77 % 0 % 1015,4 hPa 0,0 l/m 5,6 km/h (1 Bft) O-NO 67 0 min 0,0 UV-I -9,6 C -9,4 C 5,0 km/h (1 Bft)
26.03.2013 08:10 -5,7 C 6,9 C -5,3 C -5,9 C -6,2 C 0,0 C 74 % 77 % 0 % 1015,4 hPa 0,0 l/m 5,8 km/h (2 Bft) O-NO 67 0 min 0,0 UV-I -9,6 C -9,1 C 8,7 km/h (2 Bft)
26.03.2013 08:15 -5,5 C 6,9 C -4,9 C -5,5 C -5,6 C 0,0 C 74 % 76 % 0 % 1015,4 hPa 0,0 l/m 5,6 km/h (1 Bft) O-NO 67 0 min 0,0 UV-I -9,4 C -8,3 C 5,8 km/h (2 Bft)
26.03.2013 08:20 -5,5 C 6,8 C -4,9 C -5,5 C -5,6 C 0,0 C 74 % 75 % 0 % 1015,4 hPa 0,0 l/m 6,6 km/h (2 Bft) O-NO 67 0 min 0,1 UV-I -9,4 C -8,7 C 6,1 km/h (2 Bft)
26.03.2013 08:25 -5,3 C 6,9 C -4,7 C -4,5 C -5,5 C 0,8 C 73 % 75 % 21 % 1015,4 hPa 0,0 l/m 7,7 km/h (2 Bft) O-NO 67 0 min 0,1 UV-I -9,4 C -9,1 C 5,1 km/h (1 Bft)
26.03.2013 08:30 -5,1 C 6,9 C -4,6 C -4,7 C -4,7 C 0,4 C 74 % 75 % 11 % 1015,4 hPa 0,0 l/m 6,9 km/h (2 Bft) O-NO 67 0 min 0,1 UV-I -9,0 C -7,8 C 5,8 km/h (2 Bft)
26.03.2013 08:35 -5,2 C 6,8 C -4,5 C -4,2 C -4,2 C 1,0 C 72 % 74 % 26 % 1015,9 hPa 0,0 l/m 6,4 km/h (2 Bft) O 90 0 min 0,2 UV-I -9,4 C -7,0 C 6,0 km/h (2 Bft)
26.03.2013 08:40 -4,9 C 6,8 C -4,4 C -4,1 C -4,1 C 0,8 C 73 % 74 % 21 % 1015,9 hPa 0,0 l/m 7,1 km/h (2 Bft) O 90 0 min 0,2 UV-I -9,0 C -7,2 C 12,4 km/h (3 Bft)
26.03.2013 08:45 -4,9 C 6,8 C -4,1 C -3,6 C -3,6 C 1,3 C 72 % 73 % 34 % 1015,9 hPa 0,0 l/m 6,8 km/h (2 Bft) O-NO 67 0 min 0,2 UV-I -9,1 C -6,5 C 9,3 km/h (2 Bft)
26.03.2013 08:50 -4,9 C 6,8 C -4,1 C -3,1 C -4,3 C 1,8 C 71 % 73 % 47 % 1015,9 hPa 0,0 l/m 8,0 km/h (2 Bft) O-NO 67 0 min 0,2 UV-I -9,3 C -7,8 C 16,9 km/h (3 Bft)
26.03.2013 08:55 -4,9 C 6,8 C -3,9 C -4,1 C -5,7 C 0,8 C 72 % 73 % 21 % 1015,7 hPa 0,0 l/m 8,5 km/h (2 Bft) O 90 0 min 0,3 UV-I -9,1 C -9,6 C 10,5 km/h (2 Bft)
26.03.2013 09:00 -4,7 C 6,8 C -3,7 C -4,7 C -5,8 C 0,0 C 71 % 71 % 0 % 1015,7 hPa 0,0 l/m 8,4 km/h (2 Bft) O-NO 67 0 min 0,3 UV-I -9,1 C -9,7 C 10,1 km/h (2 Bft)
26.03.2013 09:05 -4,5 C 6,8 C -3,7 C -4,6 C -4,9 C 0,0 C 71 % 71 % 0 % 1015,7 hPa 0,0 l/m 7,4 km/h (2 Bft) O-NO 67 0 min 0,3 UV-I -8,9 C -8,3 C 6,1 km/h (2 Bft)
26.03.2013 09:10 -4,5 C 6,8 C -3,6 C -4,0 C -4,0 C 0,5 C 70 % 71 % 13 % 1015,7 hPa 0,0 l/m 6,3 km/h (2 Bft) NO 45 0 min 0,3 UV-I -9,1 C -6,8 C 4,7 km/h (1 Bft)
26.03.2013 09:15 -4,4 C 6,8 C -3,3 C -3,6 C -3,6 C 0,8 C 70 % 70 % 21 % 1015,4 hPa 0,0 l/m 6,1 km/h (2 Bft) O-NO 67 0 min 0,3 UV-I -9,0 C -6,2 C 5,8 km/h (2 Bft)
26.03.2013 09:20 -4,3 C 6,8 C -2,9 C -3,8 C -3,8 C 0,5 C 70 % 69 % 13 % 1015,4 hPa 0,0 l/m 6,6 km/h (2 Bft) O-SO 112 0 min 0,4 UV-I -8,9 C -6,7 C 10,6 km/h (2 Bft)
26.03.2013 09:25 -4,1 C 6,8 C -2,7 C -4,2 C -4,4 C 0,0 C 69 % 68 % 0 % 1015,4 hPa 0,0 l/m 7,4 km/h (2 Bft) O-NO 67 0 min 0,4 UV-I -8,9 C -7,7 C 6,8 km/h (2 Bft)
26.03.2013 09:30 -4,1 C 6,8 C -2,3 C -3,6 C -4,7 C 0,5 C 68 % 67 % 13 % 1015,4 hPa 0,0 l/m 8,4 km/h (2 Bft) O-SO 112 0 min 0,5 UV-I -9,1 C -8,4 C 12,1 km/h (2 Bft)
26.03.2013 09:35 -4,1 C 6,8 C -2,1 C -3,9 C -5,2 C 0,2 C 67 % 65 % 5 % 1015,4 hPa 0,0 l/m 8,5 km/h (2 Bft) O-NO 67 0 min 0,5 UV-I -9,3 C -9,0 C 7,6 km/h (2 Bft)
26.03.2013 09:40 -3,9 C 6,8 C -1,7 C -4,2 C -4,8 C 0,0 C 68 % 66 % 0 % 1015,4 hPa 0,0 l/m 7,6 km/h (2 Bft) O 90 0 min 0,5 UV-I -8,9 C -8,2 C 14,5 km/h (3 Bft)
26.03.2013 09:45 -3,9 C 6,8 C -2,1 C -3,9 C -4,9 C 0,0 C 66 % 63 % 0 % 1015,4 hPa 0,0 l/m 7,9 km/h (2 Bft) O-NO 67 0 min 0,5 UV-I -9,3 C -8,5 C 10,6 km/h (2 Bft)
26.03.2013 09:50 -3,9 C 6,8 C -1,9 C -3,9 C -5,3 C 0,0 C 66 % 63 % 0 % 1015,4 hPa 0,0 l/m 9,2 km/h (2 Bft) O 90 0 min 0,5 UV-I -9,3 C -9,4 C 18,8 km/h (3 Bft)
26.03.2013 09:55 -3,9 C 6,8 C -2,0 C -4,0 C -5,7 C 0,0 C 66 % 63 % 0 % 1015,4 hPa 0,0 l/m 10,3 km/h (2 Bft) O 90 0 min 0,6 UV-I -9,3 C -10,2 C 13,0 km/h (3 Bft)
26.03.2013 10:00 -3,9 C 6,8 C -2,0 C -4,1 C -5,5 C 0,0 C 66 % 63 % 0 % 1015,4 hPa 0,0 l/m 9,8 km/h (2 Bft) O-NO 67 0 min 0,6 UV-I -9,3 C -9,8 C 9,3 km/h (2 Bft)
26.03.2013 10:05 -3,7 C 6,8 C -2,0 C -3,7 C -4,6 C 0,0 C 66 % 63 % 0 % 1015,4 hPa 0,0 l/m 8,5 km/h (2 Bft) O-SO 112 0 min 0,7 UV-I -9,1 C -8,3 C 9,2 km/h (2 Bft)
26.03.2013 10:10 -3,5 C 6,8 C -1,9 C -3,7 C -4,1 C 0,0 C 66 % 63 % 0 % 1015,4 hPa 0,0 l/m 7,6 km/h (2 Bft) O-NO 67 0 min 0,8 UV-I -8,9 C -7,4 C 12,6 km/h (3 Bft)
26.03.2013 10:15 -3,3 C 6,8 C -2,1 C -2,9 C -3,9 C 0,4 C 64 % 63 % 11 % 1015,4 hPa 0,0 l/m 8,5 km/h (2 Bft) NO 45 0 min 0,8 UV-I -9,1 C -7,5 C 11,4 km/h (2 Bft)
26.03.2013 10:20 -3,3 C 6,8 C -2,0 C -2,7 C -3,6 C 0,6 C 65 % 63 % 16 % 1015,4 hPa 0,0 l/m 8,5 km/h (2 Bft) O-NO 67 0 min 0,8 UV-I -8,9 C -7,1 C 18,0 km/h (3 Bft)
26.03.2013 10:25 -3,2 C 6,8 C -2,0 C -2,7 C -3,9 C 0,5 C 64 % 64 % 13 % 1015,4 hPa 0,0 l/m 9,0 km/h (2 Bft) O-NO 67 0 min 0,8 UV-I -9,0 C -7,7 C 6,6 km/h (2 Bft)
26.03.2013 10:30 -3,2 C 6,8 C -1,7 C -2,9 C -4,1 C 0,3 C 64 % 63 % 8 % 1015,4 hPa 0,0 l/m 9,7 km/h (2 Bft) S 180 0 min 0,9 UV-I -9,0 C -8,1 C 6,3 km/h (2 Bft)
26.03.2013 10:35 -3,1 C 6,8 C -1,3 C -3,1 C -4,3 C 0,0 C 63 % 61 % 0 % 1015,4 hPa 0,0 l/m 10,3 km/h (2 Bft) O-NO 67 0 min 0,8 UV-I -9,1 C -8,5 C 20,0 km/h (4 Bft)
26.03.2013 10:40 -2,9 C 6,8 C -1,7 C -3,0 C -4,4 C 0,0 C 62 % 61 % 0 % 1015,4 hPa 0,0 l/m 10,8 km/h (2 Bft) O-NO 67 0 min 0,9 UV-I -9,1 C -8,8 C 10,0 km/h (2 Bft)
26.03.2013 10:46 -2,9 C 6,8 C -1,7 C -3,4 C -4,4 C 0,0 C 62 % 61 % 0 % 1015,4 hPa 0,0 l/m 10,8 km/h (2 Bft) O-NO 67 0 min 0,9 UV-I -9,1 C -8,8 C 11,9 km/h (2 Bft)
26.03.2013 10:50 -2,9 C 6,8 C -1,7 C -3,0 C -4,2 C 0,0 C 62 % 61 % 0 % 1015,4 hPa 0,0 l/m 10,0 km/h (2 Bft) O-NO 67 0 min 0,9 UV-I -9,1 C -8,3 C 8,7 km/h (2 Bft)
26.03.2013 10:55 -2,7 C 6,8 C -1,7 C -2,8 C -4,1 C 0,0 C 61 % 62 % 0 % 1015,4 hPa 0,0 l/m 10,3 km/h (2 Bft) O-NO 67 0 min 1,0 UV-I -9,2 C -8,3 C 22,9 km/h (4 Bft)
26.03.2013 11:00 -2,5 C 6,8 C -1,5 C -2,5 C -3,5 C 0,0 C 61 % 62 % 0 % 1015,4 hPa 0,0 l/m 9,5 km/h (2 Bft) O-NO 67 0 min 1,0 UV-I -9,0 C -7,3 C 9,8 km/h (2 Bft)
26.03.2013 11:05 -2,5 C 6,8 C -1,1 C -2,2 C -3,1 C 0,3 C 61 % 60 % 8 % 1015,4 hPa 0,0 l/m 8,9 km/h (2 Bft) O 90 0 min 1,0 UV-I -9,0 C -6,7 C 21,6 km/h (4 Bft)
26.03.2013 11:10 -2,5 C 6,8 C -0,7 C -2,2 C -3,4 C 0,3 C 59 % 58 % 8 % 1015,4 hPa 0,0 l/m 10,5 km/h (2 Bft) O 90 0 min 1,0 UV-I -9,4 C -7,5 C 13,8 km/h (3 Bft)
26.03.2013 11:15 -2,4 C 6,8 C -0,1 C -2,2 C -3,5 C 0,2 C 60 % 57 % 5 % 1015,4 hPa 0,0 l/m 11,7 km/h (2 Bft) O-NO 67 0 min 1,0 UV-I -9,1 C -8,0 C 16,4 km/h (3 Bft)
26.03.2013 11:20 -2,3 C 6,8 C -0,2 C -2,2 C -3,3 C 0,1 C 59 % 56 % 3 % 1015,4 hPa 0,0 l/m 11,1 km/h (2 Bft) O-NO 67 0 min 1,1 UV-I -9,2 C -7,6 C 10,1 km/h (2 Bft)
26.03.2013 11:25 -2,1 C 6,8 C 0,3 C -1,5 C -2,2 C 0,6 C 59 % 56 % 16 % 1015,4 hPa 0,0 l/m 9,7 km/h (2 Bft) O-NO 67 0 min 1,1 UV-I -9,0 C -5,9 C 12,9 km/h (3 Bft)
26.03.2013 11:30 -1,9 C 6,8 C 0,4 C -0,9 C -1,6 C 1,0 C 59 % 56 % 26 % 1015,4 hPa 0,0 l/m 8,9 km/h (2 Bft) O-SO 112 0 min 1,1 UV-I -8,8 C -4,9 C 17,7 km/h (3 Bft)
26.03.2013 11:35 -1,7 C 6,8 C 0,8 C -0,3 C -1,0 C 1,4 C 58 % 53 % 37 % 1015,4 hPa 0,0 l/m 9,3 km/h (2 Bft) O-NO 67 0 min 1,2 UV-I -8,9 C -4,3 C 11,9 km/h (2 Bft)
26.03.2013 11:40 -1,7 C 6,8 C 0,9 C -0,1 C -1,1 C 1,6 C 57 % 54 % 42 % 1015,4 hPa 0,0 l/m 10,3 km/h (2 Bft) O 90 0 min 1,4 UV-I -9,1 C -4,7 C 11,6 km/h (2 Bft)
26.03.2013 11:45 -1,6 C 6,7 C 1,1 C 0,1 C -0,8 C 1,7 C 57 % 54 % 45 % 1015,4 hPa 0,0 l/m 10,1 km/h (2 Bft) O-NO 67 0 min 1,3 UV-I -9,0 C -4,3 C 10,8 km/h (2 Bft)
26.03.2013 11:50 -1,5 C 6,7 C 1,1 C 0,2 C -0,7 C 1,7 C 56 % 53 % 45 % 1015,4 hPa 0,0 l/m 9,5 km/h (2 Bft) O-SO 112 0 min 1,4 UV-I -9,1 C -4,0 C 11,3 km/h (2 Bft)
26.03.2013 11:55 -1,3 C 6,8 C 1,2 C 0,3 C -0,6 C 1,6 C 56 % 51 % 42 % 1015,4 hPa 0,0 l/m 9,2 km/h (2 Bft) O 90 0 min 1,4 UV-I -8,9 C -3,8 C 12,2 km/h (2 Bft)
26.03.2013 12:00 -1,3 C 6,8 C 1,3 C 0,4 C -0,4 C 1,7 C 56 % 51 % 45 % 1015,4 hPa 0,0 l/m 9,5 km/h (2 Bft) O-NO 67 0 min 1,6 UV-I -8,9 C -3,7 C 10,3 km/h (2 Bft)
26.03.2013 12:05 -1,3 C 6,7 C 1,7 C 0,5 C -0,6 C 1,8 C 55 % 51 % 47 % 1015,4 hPa 0,0 l/m 10,6 km/h (2 Bft) O-NO 67 0 min 1,8 UV-I -9,2 C -4,2 C 14,8 km/h (3 Bft)
26.03.2013 12:10 -1,1 C 6,7 C 2,0 C 0,8 C 0,1 C 1,9 C 56 % 50 % 50 % 1015,4 hPa 0,0 l/m 10,3 km/h (2 Bft) O-NO 67 0 min 1,9 UV-I -8,7 C -3,3 C 9,7 km/h (2 Bft)
26.03.2013 12:15 -0,9 C 6,7 C 2,1 C 1,6 C 1,2 C 2,5 C 55 % 49 % 66 % 1015,4 hPa 0,0 l/m 9,2 km/h (2 Bft) O-NO 67 0 min 2,0 UV-I -8,8 C -1,7 C 13,2 km/h (3 Bft)
26.03.2013 12:20 -0,9 C 6,7 C 1,8 C 2,0 C 1,1 C 2,9 C 55 % 50 % 76 % 1015,4 hPa 0,0 l/m 9,3 km/h (2 Bft) O-SO 112 0 min 1,9 UV-I -8,8 C -1,8 C 8,5 km/h (2 Bft)
26.03.2013 12:25 -0,8 C 6,7 C 1,7 C 2,3 C 1,7 C 3,1 C 55 % 51 % 82 % 1015,4 hPa 0,0 l/m 9,2 km/h (2 Bft) O-NO 67 0 min 1,9 UV-I -8,7 C -1,1 C 8,2 km/h (2 Bft)
26.03.2013 12:30 -0,6 C 6,7 C 1,9 C 2,8 C 2,3 C 3,4 C 55 % 50 % 89 % 1015,4 hPa 0,0 l/m 8,5 km/h (2 Bft) O-NO 67 5 min 2,0 UV-I -8,5 C -0,2 C 13,0 km/h (3 Bft)
26.03.2013 12:35 -0,5 C 6,7 C 1,8 C 2,9 C 2,1 C 3,4 C 54 % 50 % 89 % 1015,4 hPa 0,0 l/m 9,5 km/h (2 Bft) O 90 5 min 2,0 UV-I -8,6 C -0,7 C 10,1 km/h (2 Bft)
26.03.2013 12:46 -0,3 C 6,7 C 2,4 C 3,3 C 3,0 C 3,6 C 53 % 50 % 95 % 1015,4 hPa 0,0 l/m 8,0 km/h (2 Bft) N 0 11 min 2,0 UV-I -8,7 C 0,8 C 9,3 km/h (2 Bft)
26.03.2013 13:00 0,0 C 6,7 C 2,8 C 4,0 C 3,6 C 4,0 C 53 % 50 % 100 % 1015,4 hPa 0,0 l/m 7,7 km/h (2 Bft) O-SO 112 14 min 2,0 UV-I -8,4 C 1,6 C 11,7 km/h (2 Bft)
26.03.2013 13:05 0,1 C 6,7 C 2,9 C 4,1 C 3,4 C 4,0 C 49 % 46 % 100 % 1015,4 hPa 0,0 l/m 8,5 km/h (2 Bft) O-NO 67 5 min 2,0 UV-I -9,3 C 1,1 C 12,7 km/h (3 Bft)
26.03.2013 13:10 0,3 C 6,7 C 3,1 C 3,9 C 3,1 C 3,6 C 49 % 46 % 95 % 1015,4 hPa 0,0 l/m 9,3 km/h (2 Bft) O-NO 67 5 min 1,7 UV-I -9,1 C 0,6 C 10,5 km/h (2 Bft)
26.03.2013 13:15 0,3 C 6,7 C 2,7 C 3,2 C 1,9 C 2,9 C 47 % 45 % 76 % 1014,9 hPa 0,0 l/m 11,4 km/h (2 Bft) O 90 0 min 1,7 UV-I -9,7 C -1,4 C 24,5 km/h (4 Bft)
26.03.2013 13:20 0,3 C 6,7 C 2,7 C 2,6 C 1,4 C 2,3 C 47 % 47 % 61 % 1014,9 hPa 0,0 l/m 12,6 km/h (3 Bft) O-NO 67 0 min 1,8 UV-I -9,7 C -2,2 C 10,3 km/h (2 Bft)
26.03.2013 13:25 0,4 C 6,8 C 2,9 C 2,4 C 1,2 C 2,0 C 47 % 45 % 53 % 1014,9 hPa 0,0 l/m 14,3 km/h (3 Bft) O-NO 67 0 min 1,6 UV-I -9,6 C -2,8 C 13,5 km/h (3 Bft)
26.03.2013 13:30 0,4 C 6,8 C 2,8 C 2,1 C 1,0 C 1,7 C 47 % 46 % 45 % 1014,9 hPa 0,0 l/m 13,8 km/h (3 Bft) O-NO 67 0 min 1,6 UV-I -9,6 C -3,0 C 16,6 km/h (3 Bft)
26.03.2013 13:35 0,6 C 6,8 C 2,9 C 2,5 C 1,9 C 1,9 C 47 % 46 % 50 % 1014,5 hPa 0,0 l/m 11,4 km/h (2 Bft) O-NO 67 0 min 1,5 UV-I -9,4 C -1,4 C 15,0 km/h (3 Bft)
26.03.2013 13:40 0,7 C 6,8 C 2,9 C 3,0 C 2,3 C 2,3 C 47 % 46 % 61 % 1014,5 hPa 0,0 l/m 10,5 km/h (2 Bft) O 90 0 min 1,6 UV-I -9,3 C -0,7 C 12,9 km/h (3 Bft)
26.03.2013 13:45 0,6 C 6,8 C 2,3 C 2,9 C 1,7 C 2,3 C 45 % 45 % 61 % 1014,5 hPa 0,0 l/m 12,9 km/h (3 Bft) O-NO 67 0 min 1,5 UV-I -9,9 C -1,9 C 27,0 km/h (4 Bft)
26.03.2013 13:50 0,6 C 6,8 C 2,3 C 2,7 C 1,8 C 2,1 C 47 % 47 % 55 % 1014,5 hPa 0,0 l/m 12,6 km/h (3 Bft) O-NO 67 0 min 1,3 UV-I -9,4 C -1,7 C 17,9 km/h (3 Bft)
26.03.2013 13:55 0,6 C 6,8 C 1,8 C 1,8 C 1,8 C 1,2 C 45 % 46 % 32 % 1014,9 hPa 0,0 l/m 11,4 km/h (2 Bft) O-NO 67 0 min 1,4 UV-I -9,9 C -1,5 C 13,7 km/h (3 Bft)
26.03.2013 14:00 0,8 C 6,8 C 1,9 C 2,6 C 1,6 C 1,8 C 46 % 48 % 47 % 1014,9 hPa 0,0 l/m 11,4 km/h (2 Bft) O 90 0 min 1,3 UV-I -9,5 C -1,7 C 11,4 km/h (2 Bft)
26.03.2013 14:05 0,8 C 6,8 C 1,6 C 2,4 C 1,4 C 1,6 C 46 % 48 % 42 % 1014,9 hPa 0,0 l/m 11,6 km/h (2 Bft) O-SO 112 0 min 1,3 UV-I -9,5 C -2,0 C 9,5 km/h (2 Bft)
26.03.2013 14:10 0,8 C 6,8 C 1,6 C 2,6 C 1,8 C 1,8 C 45 % 48 % 47 % 1014,9 hPa 0,0 l/m 11,3 km/h (2 Bft) O 90 0 min 1,3 UV-I -9,8 C -1,5 C 10,8 km/h (2 Bft)
26.03.2013 14:15 0,8 C 6,8 C 1,5 C 2,9 C 2,2 C 2,1 C 46 % 48 % 55 % 1014,9 hPa 0,0 l/m 9,8 km/h (2 Bft) O 90 0 min 1,2 UV-I -9,5 C -0,6 C 15,4 km/h (3 Bft)
26.03.2013 14:20 0,9 C 6,8 C 1,6 C 3,1 C 2,4 C 2,2 C 46 % 48 % 58 % 1014,9 hPa 0,0 l/m 9,5 km/h (2 Bft) O 90 0 min 1,1 UV-I -9,4 C -0,3 C 9,5 km/h (2 Bft)
26.03.2013 14:25 0,9 C 6,8 C 1,5 C 3,1 C 2,2 C 2,2 C 45 % 48 % 58 % 1014,9 hPa 0,0 l/m 10,6 km/h (2 Bft) O-NO 67 0 min 1,1 UV-I -9,7 C -0,8 C 11,7 km/h (2 Bft)
26.03.2013 14:30 1,0 C 6,8 C 1,5 C 3,1 C 2,4 C 2,1 C 46 % 50 % 55 % 1014,9 hPa 0,0 l/m 10,1 km/h (2 Bft) O-NO 67 0 min 1,0 UV-I -9,3 C -0,5 C 6,4 km/h (2 Bft)
26.03.2013 14:35 1,2 C 6,8 C 1,7 C 3,9 C 3,7 C 2,7 C 48 % 51 % 71 % 1014,5 hPa 0,0 l/m 8,0 km/h (2 Bft) O-NO 67 0 min 1,0 UV-I -8,6 C 1,6 C 9,7 km/h (2 Bft)
26.03.2013 14:40 1,2 C 6,8 C 1,6 C 4,3 C 4,3 C 3,1 C 48 % 51 % 82 % 1014,5 hPa 0,0 l/m 6,9 km/h (2 Bft) O-NO 67 0 min 1,0 UV-I -8,6 C 2,6 C 13,0 km/h (3 Bft)
26.03.2013 14:45 1,3 C 6,8 C 1,6 C 4,5 C 3,8 C 3,2 C 48 % 51 % 84 % 1014,5 hPa 0,0 l/m 7,7 km/h (2 Bft) O-NO 67 0 min 0,9 UV-I -8,5 C 1,8 C 8,0 km/h (2 Bft)
26.03.2013 14:50 1,3 C 6,8 C 1,6 C 3,8 C 3,8 C 2,5 C 49 % 52 % 66 % 1014,5 hPa 0,0 l/m 7,7 km/h (2 Bft) O-SO 112 0 min 0,8 UV-I -8,2 C 1,8 C 7,1 km/h (2 Bft)
26.03.2013 14:55 1,2 C 6,8 C 1,6 C 3,9 C 3,9 C 2,7 C 47 % 51 % 71 % 1014,5 hPa 0,0 l/m 6,9 km/h (2 Bft) S-SO 157 0 min 0,7 UV-I -8,8 C 2,2 C 7,4 km/h (2 Bft)
26.03.2013 15:00 1,3 C 6,8 C 1,6 C 3,6 C 3,6 C 2,3 C 47 % 51 % 61 % 1014,5 hPa 0,0 l/m 7,2 km/h (2 Bft) O-NO 67 0 min 0,7 UV-I -8,7 C 1,7 C 9,3 km/h (2 Bft)
26.03.2013 15:05 1,2 C 6,8 C 1,5 C 3,3 C 3,3 C 2,1 C 47 % 51 % 55 % 1014,5 hPa 0,0 l/m 7,6 km/h (2 Bft) NO 45 0 min 0,6 UV-I -8,8 C 1,3 C 8,9 km/h (2 Bft)
26.03.2013 15:10 1,1 C 6,8 C 1,3 C 3,5 C 2,4 C 2,4 C 47 % 50 % 63 % 1014,5 hPa 0,0 l/m 9,5 km/h (2 Bft) O-NO 67 0 min 0,5 UV-I -8,9 C -0,3 C 14,6 km/h (3 Bft)
26.03.2013 15:15 1,1 C 6,8 C 1,4 C 3,0 C 2,2 C 1,9 C 47 % 51 % 50 % 1014,8 hPa 0,0 l/m 9,0 km/h (2 Bft) O 90 0 min 0,5 UV-I -8,9 C -0,4 C 10,8 km/h (2 Bft)
26.03.2013 15:20 1,0 C 6,8 C 1,3 C 2,9 C 2,3 C 1,9 C 47 % 51 % 50 % 1014,8 hPa 0,0 l/m 8,0 km/h (2 Bft) O-NO 67 0 min 0,4 UV-I -9,0 C -0,0 C 9,3 km/h (2 Bft)
26.03.2013 15:25 0,9 C 6,8 C 1,3 C 2,5 C 1,4 C 1,6 C 47 % 50 % 42 % 1014,8 hPa 0,0 l/m 8,7 km/h (2 Bft) NO 45 0 min 0,4 UV-I -9,1 C -1,3 C 14,8 km/h (3 Bft)
26.03.2013 15:30 1,0 C 6,8 C 1,2 C 2,0 C 1,1 C 1,0 C 47 % 51 % 26 % 1014,8 hPa 0,0 l/m 9,2 km/h (2 Bft) O-NO 67 0 min 0,4 UV-I -9,0 C -1,8 C 10,6 km/h (2 Bft)
26.03.2013 15:35 1,1 C 6,8 C 1,3 C 2,1 C 1,5 C 1,0 C 47 % 51 % 26 % 1014,6 hPa 0,0 l/m 8,7 km/h (2 Bft) O-NO 67 0 min 0,3 UV-I -8,9 C -1,2 C 8,0 km/h (2 Bft)
26.03.2013 15:40 1,1 C 6,9 C 1,3 C 2,5 C 1,9 C 1,4 C 47 % 51 % 37 % 1014,6 hPa 0,0 l/m 8,5 km/h (2 Bft) O-NO 67 0 min 0,3 UV-I -8,9 C -0,7 C 20,0 km/h (4 Bft)
26.03.2013 15:45 1,0 C 6,9 C 1,2 C 2,5 C 1,6 C 1,5 C 46 % 50 % 39 % 1014,6 hPa 0,0 l/m 9,3 km/h (2 Bft) O-SO 112 0 min 0,3 UV-I -9,3 C -1,2 C 17,9 km/h (3 Bft)
26.03.2013 15:50 1,0 C 6,9 C 1,3 C 2,2 C 1,2 C 1,2 C 47 % 51 % 32 % 1014,6 hPa 0,0 l/m 10,0 km/h (2 Bft) O-SO 112 0 min 0,2 UV-I -9,0 C -1,9 C 15,0 km/h (3 Bft)
26.03.2013 15:55 0,9 C 6,7 C 1,2 C 1,8 C 0,7 C 0,9 C 45 % 49 % 24 % 1014,9 hPa 0,0 l/m 10,6 km/h (2 Bft) O 90 0 min 0,2 UV-I -9,7 C -2,6 C 16,7 km/h (3 Bft)
26.03.2013 16:00 0,8 C 6,7 C 1,2 C 1,7 C 0,8 C 0,9 C 45 % 49 % 24 % 1014,9 hPa 0,0 l/m 10,5 km/h (2 Bft) NO 45 0 min 0,2 UV-I -9,8 C -2,5 C 12,7 km/h (3 Bft)
26.03.2013 16:05 0,8 C 6,7 C 1,3 C 1,9 C 1,3 C 1,1 C 46 % 50 % 29 % 1014,9 hPa 0,0 l/m 8,2 km/h (2 Bft) O 90 0 min 0,1 UV-I -9,5 C -1,3 C 5,1 km/h (1 Bft)
26.03.2013 16:10 0,9 C 6,7 C 1,3 C 2,2 C 1,6 C 1,3 C 47 % 50 % 34 % 1014,9 hPa 0,0 l/m 7,9 km/h (2 Bft) O-NO 67 0 min 0,1 UV-I -9,1 C -0,8 C 9,2 km/h (2 Bft)
26.03.2013 16:15 1,0 C 6,7 C 1,3 C 2,4 C 1,7 C 1,4 C 46 % 50 % 37 % 1015,0 hPa 0,0 l/m 7,9 km/h (2 Bft) O-NO 67 0 min 0,1 UV-I -9,3 C -0,7 C 6,6 km/h (2 Bft)
26.03.2013 16:20 0,9 C 6,7 C 1,3 C 1,7 C 1,7 C 0,8 C 46 % 50 % 21 % 1015,0 hPa 0,0 l/m 7,7 km/h (2 Bft) O 90 0 min 0,1 UV-I -9,4 C -0,7 C 5,8 km/h (2 Bft)
26.03.2013 16:25 0,9 C 6,7 C 1,4 C 1,8 C 1,8 C 0,9 C 47 % 51 % 24 % 1015,0 hPa 0,0 l/m 6,8 km/h (2 Bft) O-SO 112 0 min 0,0 UV-I -9,1 C -0,2 C 7,7 km/h (2 Bft)
26.03.2013 16:30 0,9 C 6,7 C 1,5 C 1,6 C 1,6 C 0,7 C 46 % 49 % 18 % 1015,0 hPa 0,0 l/m 6,9 km/h (2 Bft) O-SO 112 0 min 0,0 UV-I -9,4 C -0,5 C 7,4 km/h (2 Bft)
26.03.2013 16:35 0,7 C 6,7 C 1,2 C 1,7 C 0,6 C 1,0 C 45 % 48 % 26 % 1014,8 hPa 0,0 l/m 8,0 km/h (2 Bft) O-NO 67 0 min 0,0 UV-I -9,8 C -2,0 C 13,7 km/h (3 Bft)
26.03.2013 16:40 0,6 C 6,7 C 1,1 C 0,9 C -0,2 C 0,3 C 44 % 47 % 8 % 1014,8 hPa 0,0 l/m 9,2 km/h (2 Bft) NO 45 0 min 0,0 UV-I -10,2 C -3,3 C 11,3 km/h (2 Bft)
26.03.2013 16:45 0,7 C 6,7 C 1,1 C 0,6 C -0,4 C 0,0 C 45 % 50 % 0 % 1014,8 hPa 0,0 l/m 8,5 km/h (2 Bft) NO 45 0 min 0,0 UV-I -9,8 C -3,4 C 8,7 km/h (2 Bft)
26.03.2013 16:50 0,5 C 6,7 C 0,9 C 0,4 C -0,5 C 0,0 C 45 % 49 % 0 % 1014,8 hPa 0,0 l/m 7,9 km/h (2 Bft) O-NO 67 0 min 0,0 UV-I -10,0 C -3,3 C 10,1 km/h (2 Bft)
26.03.2013 16:55 0,4 C 6,7 C 0,7 C 0,1 C -0,6 C 0,0 C 45 % 48 % 0 % 1015,0 hPa 0,0 l/m 7,4 km/h (2 Bft) NO 45 0 min 0,0 UV-I -10,1 C -3,2 C 11,4 km/h (2 Bft)
26.03.2013 17:00 0,4 C 6,7 C 0,7 C 0,3 C -0,9 C 0,0 C 44 % 48 % 0 % 1015,0 hPa 0,0 l/m 7,7 km/h (2 Bft) O-NO 67 0 min 0,0 UV-I -10,4 C -3,7 C 18,3 km/h (3 Bft)
26.03.2013 17:05 0,3 C 6,7 C 0,4 C 0,0 C -1,6 C 0,0 C 44 % 48 % 0 % 1015,0 hPa 0,0 l/m 8,7 km/h (2 Bft) O-NO 67 0 min 0,0 UV-I -10,5 C -4,8 C 7,1 km/h (2 Bft)
26.03.2013 17:10 0,2 C 6,7 C 0,3 C -0,1 C -1,5 C 0,0 C 44 % 49 % 0 % 1015,0 hPa 0,0 l/m 7,7 km/h (2 Bft) O-NO 67 0 min 0,0 UV-I -10,6 C -4,4 C 7,1 km/h (2 Bft)
26.03.2013 17:15 0,3 C 6,7 C 0,3 C -0,2 C -1,2 C 0,0 C 45 % 50 % 0 % 1015,0 hPa 0,0 l/m 6,0 km/h (2 Bft) O-NO 67 0 min 0,0 UV-I -10,2 C -3,4 C 6,8 km/h (2 Bft)
26.03.2013 17:20 0,1 C 6,8 C 0,2 C -0,4 C -1,3 C 0,0 C 45 % 50 % 0 % 1015,0 hPa 0,0 l/m 6,0 km/h (2 Bft) O 90 0 min 0,0 UV-I -10,4 C -3,5 C 16,3 km/h (3 Bft)
26.03.2013 17:25 0,0 C 6,8 C 0,0 C -0,6 C -1,7 C 0,0 C 45 % 50 % 0 % 1015,0 hPa 0,0 l/m 6,3 km/h (2 Bft) O-NO 67 0 min 0,0 UV-I -10,5 C -4,1 C 7,6 km/h (2 Bft)
26.03.2013 17:30 0,0 C 6,8 C 0,0 C -0,7 C -2,1 C 0,0 C 45 % 50 % 0 % 1015,0 hPa 0,0 l/m 6,8 km/h (2 Bft) O-NO 67 0 min 0,0 UV-I -10,5 C -4,8 C 5,5 km/h (1 Bft)
26.03.2013 17:35 -0,1 C 6,8 C -0,1 C -0,8 C -2,2 C 0,0 C 46 % 51 % 0 % 1015,0 hPa 0,0 l/m 6,4 km/h (2 Bft) S 180 0 min 0,0 UV-I -10,3 C -4,7 C 6,3 km/h (2 Bft)
26.03.2013 17:40 -0,1 C 6,8 C -0,1 C -0,8 C -2,1 C 0,0 C 47 % 52 % 0 % 1015,0 hPa 0,0 l/m 5,6 km/h (1 Bft) O-NO 67 0 min 0,0 UV-I -10,0 C -4,3 C 6,0 km/h (2 Bft)
26.03.2013 17:45 -0,1 C 6,8 C -0,4 C -0,9 C -2,4 C 0,0 C 48 % 53 % 0 % 1015,0 hPa 0,0 l/m 5,8 km/h (2 Bft) O 90 0 min 0,0 UV-I -9,8 C -4,7 C 6,4 km/h (2 Bft)
26.03.2013 17:50 -0,1 C 6,8 C -0,4 C -1,0 C -2,8 C 0,0 C 48 % 52 % 0 % 1015,0 hPa 0,0 l/m 6,4 km/h (2 Bft) O 90 0 min 0,0 UV-I -9,8 C -5,4 C 5,6 km/h (1 Bft)
26.03.2013 17:55 -0,3 C 6,8 C -0,5 C -1,2 C -3,0 C 0,0 C 49 % 53 % 0 % 1014,8 hPa 0,0 l/m 6,6 km/h (2 Bft) O-NO 67 0 min 0,0 UV-I -9,7 C -5,7 C 5,3 km/h (1 Bft)
26.03.2013 18:00 -0,4 C 6,8 C -0,5 C -1,3 C -3,1 C 0,0 C 49 % 53 % 0 % 1014,8 hPa 0,0 l/m 6,4 km/h (2 Bft) O-NO 67 0 min 0,0 UV-I -9,8 C -5,8 C 6,6 km/h (2 Bft)
26.03.2013 18:05 -0,5 C 6,8 C -0,7 C -1,4 C -3,3 C 0,0 C 50 % 55 % 0 % 1014,8 hPa 0,0 l/m 6,4 km/h (2 Bft) O-NO 67 0 min 0,0 UV-I -9,6 C -6,0 C 6,8 km/h (2 Bft)
26.03.2013 18:10 -0,5 C 6,8 C -0,8 C -1,5 C -3,4 C 0,0 C 49 % 55 % 0 % 1014,8 hPa 0,0 l/m 6,6 km/h (2 Bft) O-NO 67 0 min 0,0 UV-I -9,9 C -6,2 C 6,8 km/h (2 Bft)
26.03.2013 18:15 -0,5 C 6,8 C -0,9 C -1,6 C -3,8 C 0,0 C 49 % 55 % 0 % 1014,8 hPa 0,0 l/m 7,2 km/h (2 Bft) O-NO 67 0 min 0,0 UV-I -9,9 C -6,9 C 6,8 km/h (2 Bft)
26.03.2013 18:20 -0,5 C 6,8 C -0,9 C -1,6 C -3,8 C 0,0 C 50 % 55 % 0 % 1014,8 hPa 0,0 l/m 6,6 km/h (2 Bft) O-NO 67 0 min 0,0 UV-I -9,6 C -6,7 C 6,4 km/h (2 Bft)
26.03.2013 18:25 -0,7 C 6,8 C -0,9 C -1,7 C -3,6 C 0,0 C 49 % 55 % 0 % 1014,8 hPa 0,0 l/m 6,3 km/h (2 Bft) O 90 0 min 0,0 UV-I -10,1 C -6,3 C 4,8 km/h (1 Bft)
26.03.2013 18:30 -0,7 C 6,8 C -0,9 C -1,8 C -4,0 C 0,0 C 50 % 55 % 0 % 1014,8 hPa 0,0 l/m 6,9 km/h (2 Bft) O 90 0 min 0,0 UV-I -9,8 C -7,0 C 6,4 km/h (2 Bft)
26.03.2013 18:35 -0,8 C 6,8 C -1,1 C -1,9 C -4,0 C 0,0 C 50 % 56 % 0 % 1014,9 hPa 0,0 l/m 6,6 km/h (2 Bft) NO 45 0 min 0,0 UV-I -9,9 C -6,9 C 5,1 km/h (1 Bft)
26.03.2013 18:41 -0,9 C 6,8 C -1,2 C -2,0 C -4,2 C 0,0 C 50 % 56 % 0 % 1014,9 hPa 0,0 l/m 6,6 km/h (2 Bft) N 0 0 min 0,0 UV-I -10,0 C -7,1 C 5,1 km/h (1 Bft)
26.03.2013 19:00 -1,1 C 6,8 C -1,3 C -1,8 C -3,2 C 0,0 C 52 % 57 % 0 % 1014,9 hPa 0,0 l/m 3,9 km/h (1 Bft) O-NO 67 0 min 0,0 UV-I -9,7 C -3,2 C 4,8 km/h (1 Bft)
26.03.2013 19:05 -1,1 C 6,8 C -1,5 C -1,7 C -3,0 C 0,0 C 52 % 58 % 0 % 1014,9 hPa 0,0 l/m 3,5 km/h (1 Bft) O-NO 67 0 min 0,0 UV-I -9,7 C -3,0 C 3,2 km/h (1 Bft)
26.03.2013 19:10 -1,2 C 6,8 C -1,5 C -1,8 C -3,1 C 0,0 C 53 % 58 % 0 % 1014,9 hPa 0,0 l/m 3,7 km/h (1 Bft) O-NO 67 0 min 0,0 UV-I -9,5 C -3,1 C 4,2 km/h (1 Bft)
26.03.2013 19:15 -1,3 C 6,8 C -1,6 C -1,9 C -3,2 C 0,0 C 53 % 59 % 0 % 1015,4 hPa 0,0 l/m 3,7 km/h (1 Bft) O-NO 67 0 min 0,0 UV-I -9,6 C -3,2 C 3,9 km/h (1 Bft)
26.03.2013 19:20 -1,3 C 6,8 C -1,5 C -2,1 C -3,6 C 0,0 C 54 % 59 % 0 % 1015,4 hPa 0,0 l/m 4,2 km/h (1 Bft) O-NO 67 0 min 0,0 UV-I -9,4 C -3,6 C 5,3 km/h (1 Bft)
26.03.2013 19:25 -1,3 C 6,8 C -1,5 C -2,3 C -4,2 C 0,0 C 54 % 59 % 0 % 1015,4 hPa 0,0 l/m 5,6 km/h (1 Bft) NO 45 0 min 0,0 UV-I -9,4 C -6,7 C 10,8 km/h (2 Bft)
26.03.2013 19:30 -1,3 C 6,8 C -1,5 C -2,3 C -4,4 C 0,0 C 54 % 59 % 0 % 1015,4 hPa 0,0 l/m 6,3 km/h (2 Bft) O-NO 67 0 min 0,0 UV-I -9,4 C -7,2 C 5,5 km/h (1 Bft)
26.03.2013 19:35 -1,3 C 6,8 C -1,5 C -2,4 C -4,6 C 0,0 C 55 % 60 % 0 % 1015,7 hPa 0,0 l/m 6,6 km/h (2 Bft) O 90 0 min 0,0 UV-I -9,2 C -7,6 C 9,5 km/h (2 Bft)
26.03.2013 19:40 -1,3 C 6,8 C -1,5 C -2,3 C -4,4 C 0,0 C 55 % 60 % 0 % 1015,7 hPa 0,0 l/m 6,1 km/h (2 Bft) O-SO 112 0 min 0,0 UV-I -9,2 C -7,1 C 6,6 km/h (2 Bft)
26.03.2013 19:45 -1,3 C 6,8 C -1,7 C -2,4 C -4,6 C 0,0 C 55 % 61 % 0 % 1015,7 hPa 0,0 l/m 6,4 km/h (2 Bft) O-NO 67 0 min 0,0 UV-I -9,2 C -7,5 C 9,0 km/h (2 Bft)
26.03.2013 19:50 -1,3 C 6,8 C -1,7 C -2,3 C -4,4 C 0,0 C 56 % 61 % 0 % 1015,7 hPa 0,0 l/m 6,1 km/h (2 Bft) O-NO 67 0 min 0,0 UV-I -8,9 C -7,1 C 9,8 km/h (2 Bft)
26.03.2013 19:55 -1,3 C 6,8 C -1,7 C -2,2 C -4,1 C 0,0 C 56 % 62 % 0 % 1015,7 hPa 0,0 l/m 5,5 km/h (1 Bft) O 90 0 min 0,0 UV-I -8,9 C -6,5 C 6,3 km/h (2 Bft)
26.03.2013 20:00 -1,3 C 6,8 C -1,7 C -2,4 C -4,6 C 0,0 C 56 % 62 % 0 % 1015,7 hPa 0,0 l/m 6,6 km/h (2 Bft) O 90 0 min 0,0 UV-I -8,9 C -7,6 C 10,6 km/h (2 Bft)
26.03.2013 20:05 -1,5 C 6,8 C -1,7 C -2,6 C -4,8 C 0,0 C 56 % 62 % 0 % 1015,7 hPa 0,0 l/m 6,8 km/h (2 Bft) O-NO 67 0 min 0,0 UV-I -9,1 C -7,9 C 9,7 km/h (2 Bft)
26.03.2013 20:10 -1,5 C 6,8 C -1,7 C -2,6 C -4,8 C 0,0 C 56 % 62 % 0 % 1015,7 hPa 0,0 l/m 6,9 km/h (2 Bft) O 90 0 min 0,0 UV-I -9,1 C -7,9 C 5,8 km/h (2 Bft)
26.03.2013 20:15 -1,6 C 6,8 C -1,7 C -2,7 C -5,0 C 0,0 C 57 % 62 % 0 % 1015,7 hPa 0,0 l/m 6,9 km/h (2 Bft) O 90 0 min 0,0 UV-I -9,0 C -8,2 C 6,4 km/h (2 Bft)
26.03.2013 20:20 -1,5 C 6,8 C -1,9 C -2,6 C -4,7 C 0,0 C 57 % 63 % 0 % 1015,7 hPa 0,0 l/m 6,1 km/h (2 Bft) NO 45 0 min 0,0 UV-I -8,9 C -7,5 C 11,7 km/h (2 Bft)
26.03.2013 20:25 -1,7 C 6,8 C -1,9 C -2,8 C -4,9 C 0,0 C 57 % 63 % 0 % 1015,7 hPa 0,0 l/m 6,6 km/h (2 Bft) O 90 0 min 0,0 UV-I -9,1 C -7,9 C 10,3 km/h (2 Bft)
26.03.2013 20:30 -1,7 C 6,8 C -1,9 C -2,8 C -5,0 C 0,0 C 57 % 63 % 0 % 1015,7 hPa 0,0 l/m 6,8 km/h (2 Bft) O-NO 67 0 min 0,0 UV-I -9,1 C -8,1 C 8,4 km/h (2 Bft)
26.03.2013 20:35 -1,8 C 6,8 C -2,0 C -2,8 C -4,9 C 0,0 C 58 % 63 % 0 % 1016,1 hPa 0,0 l/m 6,3 km/h (2 Bft) O-NO 67 0 min 0,0 UV-I -8,9 C -7,8 C 5,5 km/h (1 Bft)
26.03.2013 20:40 -1,7 C 6,8 C -2,1 C -2,7 C -4,7 C 0,0 C 58 % 64 % 0 % 1016,1 hPa 0,0 l/m 5,8 km/h (2 Bft) O-SO 112 0 min 0,0 UV-I -8,9 C -7,3 C 6,3 km/h (2 Bft)
26.03.2013 20:45 -1,9 C 6,8 C -2,1 C -2,8 C -4,7 C 0,0 C 59 % 63 % 0 % 1016,1 hPa 0,0 l/m 5,5 km/h (1 Bft) O-NO 67 0 min 0,0 UV-I -8,8 C -7,2 C 6,3 km/h (2 Bft)
26.03.2013 20:50 -1,9 C 6,8 C -2,1 C -2,8 C -4,7 C 0,0 C 59 % 64 % 0 % 1016,1 hPa 0,0 l/m 5,3 km/h (1 Bft) O-NO 67 0 min 0,0 UV-I -8,8 C -7,1 C 4,5 km/h (1 Bft)
26.03.2013 20:55 -1,9 C 6,8 C -2,2 C -2,9 C -4,9 C 0,0 C 59 % 64 % 0 % 1016,1 hPa 0,0 l/m 5,5 km/h (1 Bft) O-NO 67 0 min 0,0 UV-I -8,8 C -7,4 C 9,8 km/h (2 Bft)
26.03.2013 21:00 -2,1 C 6,8 C -2,1 C -3,0 C -4,9 C 0,0 C 59 % 65 % 0 % 1016,1 hPa 0,0 l/m 5,5 km/h (1 Bft) O-NO 67 0 min 0,0 UV-I -9,0 C -7,4 C 6,4 km/h (2 Bft)
26.03.2013 21:05 -2,1 C 6,8 C -2,3 C -3,1 C -5,0 C 0,0 C 59 % 65 % 0 % 1016,1 hPa 0,0 l/m 5,6 km/h (1 Bft) O-NO 67 0 min 0,0 UV-I -9,0 C -7,6 C 5,5 km/h (1 Bft)
26.03.2013 21:10 -2,1 C 6,8 C -2,3 C -3,1 C -5,0 C 0,0 C 59 % 65 % 0 % 1016,1 hPa 0,0 l/m 5,6 km/h (1 Bft) O-NO 67 0 min 0,0 UV-I -9,0 C -7,6 C 5,5 km/h (1 Bft)
26.03.2013 21:15 -2,2 C 6,8 C -2,4 C -3,2 C -5,1 C 0,0 C 60 % 65 % 0 % 1016,2 hPa 0,0 l/m 5,8 km/h (2 Bft) O-NO 67 0 min 0,0 UV-I -8,9 C -7,8 C 8,4 km/h (2 Bft)
26.03.2013 21:20 -2,1 C 6,8 C -2,4 C -3,1 C -5,2 C 0,0 C 60 % 65 % 0 % 1016,2 hPa 0,0 l/m 6,0 km/h (2 Bft) O-NO 67 0 min 0,0 UV-I -8,8 C -8,0 C 7,7 km/h (2 Bft)
26.03.2013 21:25 -2,1 C 6,8 C -2,5 C -3,3 C -5,8 C 0,0 C 59 % 65 % 0 % 1016,2 hPa 0,0 l/m 6,9 km/h (2 Bft) O-NO 67 0 min 0,0 UV-I -9,0 C -9,1 C 6,9 km/h (2 Bft)
26.03.2013 21:30 -2,3 C 6,8 C -2,5 C -3,4 C -5,7 C 0,0 C 59 % 65 % 0 % 1016,2 hPa 0,0 l/m 6,8 km/h (2 Bft) O-NO 67 0 min 0,0 UV-I -9,2 C -8,9 C 8,7 km/h (2 Bft)
26.03.2013 21:35 -2,3 C 6,8 C -2,5 C -3,3 C -5,4 C 0,0 C 59 % 65 % 0 % 1016,4 hPa 0,0 l/m 6,0 km/h (2 Bft) O-NO 67 0 min 0,0 UV-I -9,2 C -8,2 C 7,9 km/h (2 Bft)
26.03.2013 21:40 -2,4 C 6,8 C -2,5 C -3,4 C -5,4 C 0,0 C 60 % 65 % 0 % 1016,4 hPa 0,0 l/m 5,8 km/h (2 Bft) O-NO 67 0 min 0,0 UV-I -9,1 C -8,1 C 7,4 km/h (2 Bft)
26.03.2013 21:45 -2,5 C 6,8 C -2,5 C -3,5 C -5,4 C 0,0 C 60 % 65 % 0 % 1016,4 hPa 0,0 l/m 5,6 km/h (1 Bft) NO 45 0 min 0,0 UV-I -9,2 C -8,0 C 4,2 km/h (1 Bft)
26.03.2013 21:50 -2,5 C 6,8 C -2,5 C -3,5 C -5,5 C 0,0 C 61 % 65 % 0 % 1016,4 hPa 0,0 l/m 5,5 km/h (1 Bft) O-NO 67 0 min 0,0 UV-I -9,0 C -8,1 C 6,1 km/h (2 Bft)
26.03.2013 21:55 -2,5 C 6,8 C -2,7 C -3,5 C -5,5 C 0,0 C 61 % 66 % 0 % 1016,4 hPa 0,0 l/m 5,5 km/h (1 Bft) O 90 0 min 0,0 UV-I -9,0 C -8,1 C 6,4 km/h (2 Bft)
26.03.2013 22:00 -2,5 C 6,8 C -2,7 C -3,6 C -5,8 C 0,0 C 61 % 66 % 0 % 1016,4 hPa 0,0 l/m 6,1 km/h (2 Bft) O-NO 67 0 min 0,0 UV-I -9,0 C -8,7 C 5,3 km/h (1 Bft)
26.03.2013 22:05 -2,5 C 6,8 C -2,7 C -3,6 C -5,9 C 0,0 C 61 % 66 % 0 % 1016,4 hPa 0,0 l/m 6,3 km/h (2 Bft) O 90 0 min 0,0 UV-I -9,0 C -9,0 C 6,9 km/h (2 Bft)
26.03.2013 22:10 -2,5 C 6,8 C -2,7 C -3,6 C -5,8 C 0,0 C 62 % 66 % 0 % 1016,4 hPa 0,0 l/m 6,1 km/h (2 Bft) NO 45 0 min 0,0 UV-I -8,8 C -8,7 C 8,0 km/h (2 Bft)
26.03.2013 22:15 -2,5 C 6,8 C -2,8 C -3,6 C -5,8 C 0,0 C 62 % 67 % 0 % 1016,4 hPa 0,0 l/m 6,1 km/h (2 Bft) O-NO 67 0 min 0,0 UV-I -8,8 C -8,7 C 9,2 km/h (2 Bft)
26.03.2013 22:20 -2,7 C 6,8 C -2,8 C -3,7 C -5,8 C 0,0 C 62 % 67 % 0 % 1016,4 hPa 0,0 l/m 6,1 km/h (2 Bft) O-NO 67 0 min 0,0 UV-I -8,9 C -8,7 C 6,6 km/h (2 Bft)
26.03.2013 22:25 -2,7 C 6,8 C -2,8 C -3,7 C -5,8 C 0,0 C 62 % 67 % 0 % 1016,4 hPa 0,0 l/m 6,0 km/h (2 Bft) O-NO 67 0 min 0,0 UV-I -8,9 C -8,7 C 5,0 km/h (1 Bft)
26.03.2013 22:30 -2,7 C 6,8 C -2,7 C -3,7 C -5,7 C 0,0 C 62 % 67 % 0 % 1016,4 hPa 0,0 l/m 5,8 km/h (2 Bft) O-NO 67 0 min 0,0 UV-I -8,9 C -8,5 C 4,8 km/h (1 Bft)
26.03.2013 22:35 -2,7 C 6,8 C -2,9 C -3,7 C -5,8 C 0,0 C 62 % 67 % 0 % 1015,7 hPa 0,0 l/m 6,0 km/h (2 Bft) O-NO 67 0 min 0,0 UV-I -8,9 C -8,7 C 6,4 km/h (2 Bft)
26.03.2013 22:40 -2,7 C 6,8 C -2,9 C -3,7 C -5,8 C 0,0 C 63 % 67 % 0 % 1015,7 hPa 0,0 l/m 5,8 km/h (2 Bft) O-NO 67 0 min 0,0 UV-I -8,7 C -8,6 C 6,4 km/h (2 Bft)
26.03.2013 22:45 -2,8 C 6,8 C -2,9 C -3,8 C -5,9 C 0,0 C 63 % 67 % 0 % 1015,7 hPa 0,0 l/m 6,0 km/h (2 Bft) O 90 0 min 0,0 UV-I -8,8 C -8,8 C 5,8 km/h (2 Bft)
26.03.2013 22:50 -2,8 C 6,8 C -2,9 C -3,9 C -6,0 C 0,0 C 63 % 68 % 0 % 1015,7 hPa 0,0 l/m 6,1 km/h (2 Bft) O-NO 67 0 min 0,0 UV-I -8,8 C -9,0 C 7,7 km/h (2 Bft)
26.03.2013 22:55 -2,8 C 6,8 C -2,9 C -3,8 C -5,7 C 0,0 C 64 % 68 % 0 % 1015,7 hPa 0,0 l/m 5,5 km/h (1 Bft) O 90 0 min 0,0 UV-I -8,6 C -8,3 C 4,8 km/h (1 Bft)
26.03.2013 23:00 -2,9 C 6,8 C -2,9 C -3,8 C -5,6 C 0,0 C 64 % 68 % 0 % 1015,7 hPa 0,0 l/m 5,0 km/h (1 Bft) O-NO 67 0 min 0,0 UV-I -8,7 C -7,9 C 9,0 km/h (2 Bft)
26.03.2013 23:05 -2,9 C 6,8 C -3,0 C -3,9 C -5,8 C 0,0 C 64 % 69 % 0 % 1015,7 hPa 0,0 l/m 5,5 km/h (1 Bft) O-NO 67 0 min 0,0 UV-I -8,7 C -8,4 C 8,0 km/h (2 Bft)
26.03.2013 23:10 -2,9 C 6,8 C -2,9 C -3,9 C -5,9 C 0,0 C 64 % 69 % 0 % 1015,7 hPa 0,0 l/m 5,6 km/h (1 Bft) O-NO 67 0 min 0,0 UV-I -8,7 C -8,6 C 4,8 km/h (1 Bft)
26.03.2013 23:15 -2,9 C 6,8 C -2,9 C -3,8 C -5,7 C 0,0 C 64 % 69 % 0 % 1016,1 hPa 0,0 l/m 5,1 km/h (1 Bft) O-NO 67 0 min 0,0 UV-I -8,7 C -8,1 C 5,1 km/h (1 Bft)
26.03.2013 23:20 -2,9 C 6,8 C -2,9 C -3,7 C -5,4 C 0,0 C 64 % 69 % 0 % 1016,1 hPa 0,0 l/m 4,7 km/h (1 Bft) O-NO 67 0 min 0,0 UV-I -8,7 C -7,5 C 5,8 km/h (2 Bft)
26.03.2013 23:25 -3,0 C 6,8 C -2,9 C -3,8 C -5,4 C 0,0 C 64 % 69 % 0 % 1016,1 hPa 0,0 l/m 4,5 km/h (1 Bft) O-NO 67 0 min 0,0 UV-I -8,8 C -5,4 C 8,7 km/h (2 Bft)
26.03.2013 23:30 -3,0 C 6,8 C -3,1 C -3,8 C -5,4 C 0,0 C 65 % 69 % 0 % 1016,1 hPa 0,0 l/m 4,5 km/h (1 Bft) O-SO 112 0 min 0,0 UV-I -8,6 C -5,4 C 4,8 km/h (1 Bft)
26.03.2013 23:35 -3,0 C 6,8 C -3,1 C -3,8 C -5,3 C 0,0 C 65 % 69 % 0 % 1015,9 hPa 0,0 l/m 4,3 km/h (1 Bft) O 90 0 min 0,0 UV-I -8,6 C -5,3 C 4,8 km/h (1 Bft)
26.03.2013 23:40 -2,9 C 6,8 C -3,1 C -3,7 C -5,2 C 0,0 C 65 % 69 % 0 % 1015,9 hPa 0,0 l/m 4,2 km/h (1 Bft) O-NO 67 0 min 0,0 UV-I -8,5 C -5,2 C 5,5 km/h (1 Bft)
26.03.2013 23:45 -3,1 C 6,8 C -3,2 C -3,8 C -5,2 C 0,0 C 65 % 70 % 0 % 1015,9 hPa 0,0 l/m 4,2 km/h (1 Bft) O 90 0 min 0,0 UV-I -8,7 C -5,2 C 6,4 km/h (2 Bft)
26.03.2013 23:50 -3,1 C 6,8 C -3,2 C -3,8 C -5,3 C 0,0 C 65 % 70 % 0 % 1015,9 hPa 0,0 l/m 4,3 km/h (1 Bft) O-NO 67 0 min 0,0 UV-I -8,7 C -5,3 C 6,3 km/h (2 Bft)
26.03.2013 23:55 -3,1 C 6,8 C -3,2 C -3,8 C -5,1 C 0,0 C 65 % 70 % 0 % 1015,8 hPa 0,0 l/m 3,9 km/h (1 Bft) O-NO 67 0 min 0,0 UV-I -8,7 C -5,1 C 2,9 km/h (1 Bft)
_ Min-Zeit 06:46 11:45 06:10 06:46 04:10 00:00 16:40 13:15 00:00 13:35 - 05:20 - - - 00:00 17:10 00:05 06:15
Minimum _ -6,6 C 6,7 C -6,6 C -7,3 C -9,2 C 0,0 C 44 % 45 % 0 % 1014,5 hPa - 1,8 km/h (1 Bft) - - - 0,0 UV-I -10,6 C -13,1 C 0,0 km/h (0 Bft)
_ Max-Zeit 14:45 00:00 13:10 14:45 14:40 13:00 06:46 06:30 13:00 00:00 00:00 13:25 - - 13:00 12:15 14:50 14:40 13:45
Maximum _ 1,3 C 6,9 C 3,1 C 4,5 C 4,3 C 4,0 C 76 % 79 % 100 % 1016,8 hPa 0,0 l/m 14,3 km/h
O-NO (3 Bft)
- - 14 min 2,0 UV-I -8,2 C 2,6 C 27,0 km/h
O-NO (4 Bft)
Durchschnitt _ -2,8 C 6,8 C -2,4 C -2,9 C -4,3 C 0,5 C 61 % 64 % 13 % 1015,6 hPa #0,0 l/m 6,6 km/h (2 Bft) O-NO - #45 min. 0,9 UV-I -9,4 C -6,8 C 8,1 km/h (2 Bft)
2013 www.wetterstation-wechselburg.de